Location: Beaver Brook Trail
(44.0290°N, 71.8137°W)
Time: 01:35:16
(UTC+00:00)

Vanguard 1 Rocket - Pass Details

Date: 12 November 2024
Orbit: 650 x 4218 km, 34.3° (Epoch: 08 December)

Event Time Altitude Azimuth Distance (km) Brightness Sun altitude
Rises 23:45:20 0° 274° (W) 5,460 12.7 -25.6°
Reaches altitude 10° 23:52:55 10° 244° (WSW) 3,481 11.2 -26.9°
Maximum altitude 23:54:52 11° 230° (SW) 3,165 10.7 -27.3°
Drops below altitude 10° 23:56:36 10° 216° (SW) 3,018 10.4 -27.6°
Sets 00:01:23 0° 179° (S) 3,429 10.3 -28.4°
